Find OneWeb SL0559

NORAD ID: 56060 Int'l Des: 2023-043 Owner: ONEWEBN Country: UK Constellation: oneweb operational
LEOCIRCULARPOLARONEWEB_TYPE

Live Position

Loading 3D Globe...

About OneWeb SL0559

Description loading...

Upcoming Passes

Passes for default location (London). Set your location on the main map for personalized predictions.

Altitude History

Loading altitude history...

Two-Line Element Set

1 56060U 23043Q 26124.30130329 .00000166 00000-0 36937-3 0 9999
2 56060 87.9230 252.7078 0001800 93.6046 266.5294 13.21825275152453
Epoch: May 4, 2026 • Age: 11 hours

Current Status

Altitude 1203.7 km
Velocity 7.25 km/s
Sub-Earth Point -64.46°S, 118.57°E
Launch Date Mar 26, 2023
Age 3.1 years
Type internet

Technical Details

Classification Payload
Mass 148.00 kg
Dry Mass 140.00 kg
Total Mass 148.00 kg
Length 1.30 m
Diameter 1.00 m
Span 5.00 m
Shape Trapezoid+2 pan
Manufacturer ONEWUS
Bus Type ARROW
Phase Status In Orbit
Owner/State ONEWEBN/UK

Most Searched